Weather History for Belfast, United Kingdom

Change the Weather History Date:

Monday, December 17, 2012

  Actual Average Record
Temperature  
Mean Temperature 41 °F -  
Max Temperature 43 °F 44 °F 55 °F (1998)
Min Temperature 39 °F 35 °F 23 °F (2002)
Degree Days  
Heating Degree Days 24    
Moisture  
Dew Point 42 °F    
Average Humidity 99    
Maximum Humidity 100    
Minimum Humidity 91    
Precipitation  
Precipitation 0.00 in 0.11 in - ()
Sea Level Pressure  
Sea Level Pressure 29.42 in    
Wind  
Wind Speed 6 mph ()    
Max Wind Speed 8 mph    
Max Gust Speed -    
Visibility 6.5 miles    
Events Rain    
Averages and records for this station are not official NWS values.
T = Trace of Precipitation, MM = Missing Value Source: Averaged Metar Reports

Daily Weather History Graph

Daily Weather History Graph

Search for Another Location

Airport:

Trip Planner

Search our weather history database for the weather conditions in past years. The results will help you decide how hot, cold, wet, or windy it might be!

Date:

Astronomy

Dec. 17, 2012 Rise Set
Actual Time 8:43 AM GMT 3:58 PM GMT
Civil Twilight 7:58 AM GMT 4:43 PM GMT
Nautical Twilight 7:11 AM GMT 5:30 PM GMT
Astronomical Twilight 6:27 AM GMT 6:15 PM GMT
Moon 11:04 AM GMT (12/17) 9:49 PM GMT (12/17)
Length of Visible Light 8h 45m
Length of Day
7h 15m
Waxing Crescent, 23% of the Moon is Illuminated
Dec 17
Waxing Crescent
Dec 20
First Quarter
Dec 28
Full
Jan 5
Last Quarter
Jan 11
New

Hourly Weather History & Observations

Time (GMT) Temp. Windchill Dew Point Humidity Pressure Visibility Wind Dir Wind Speed Gust Speed Precip Events Conditions
12:20 AM 42.8 °F 38.0 °F 41.0 °F 93% 29.21 in 6.2 mi South 8.1 mph - N/A   Overcast
12:50 AM 42.8 °F 38.0 °F 42.8 °F 100% 29.24 in 6.2 mi South 8.1 mph - N/A   Overcast
1:20 AM 42.8 °F 38.6 °F 42.8 °F 100% 29.24 in 6.2 mi South 6.9 mph - N/A   Overcast
1:50 AM 42.8 °F 40.1 °F 42.8 °F 100% 29.24 in 6.2 mi South 4.6 mph - N/A   Overcast
2:20 AM 42.8 °F 38.6 °F 42.8 °F 100% 29.24 in 3.7 mi South 6.9 mph - N/A   Mostly Cloudy
2:50 AM 42 °F - 41 °F 97% 29.25 in 12 mi South 5.8 mph - - Rain Drizzle
2:50 AM 42.8 °F 38.6 °F 42.8 °F 100% 29.24 in 6.2 mi South 6.9 mph - N/A   Overcast
3:20 AM 42.8 °F 38.6 °F 42.8 °F 100% 29.24 in 6.2 mi SSW 6.9 mph - N/A   Overcast
3:50 AM 42.8 °F 38.0 °F 42.8 °F 100% 29.24 in 6.2 mi SSW 8.1 mph - N/A   Overcast
4:20 AM 41.0 °F 35.8 °F 41.0 °F 100% 29.27 in 5.0 mi SSW 8.1 mph - N/A   Overcast
4:50 AM 41.0 °F 36.4 °F 41.0 °F 100% 29.27 in 6.2 mi SW 6.9 mph - N/A   Mostly Cloudy
5:20 AM 41.0 °F 37.1 °F 41.0 °F 100% 29.27 in 6.2 mi SSW 5.8 mph - N/A   Mostly Cloudy
5:50 AM 41 °F - 40 °F 96% 29.29 in 9 mi SSW 8.1 mph - - Rain Light Drizzle
5:50 AM 41.0 °F 35.8 °F 41.0 °F 100% 29.27 in 6.2 mi SSW 8.1 mph - N/A Rain Light Rain
6:20 AM 41.0 °F 36.4 °F 41.0 °F 100% 29.30 in 6.2 mi SSW 6.9 mph - N/A Rain Light Rain
6:50 AM 41.0 °F 35.8 °F 41.0 °F 100% 29.30 in 6.2 mi SSW 8.1 mph - N/A   Mostly Cloudy
7:20 AM 41.0 °F 36.4 °F 41.0 °F 100% 29.30 in 6.2 mi SSW 6.9 mph - N/A   Mostly Cloudy
7:50 AM 41.0 °F 36.4 °F 41.0 °F 100% 29.33 in 6.2 mi SSW 6.9 mph - N/A   Mostly Cloudy
8:20 AM 41.0 °F 36.4 °F 41.0 °F 100% 29.33 in 6.2 mi SSW 6.9 mph - N/A   Mostly Cloudy
8:50 AM 41 °F - 40 °F 97% 29.35 in 28 mi SW 5.8 mph - -   Mostly Cloudy
8:50 AM 41.0 °F 36.4 °F 41.0 °F 100% 29.33 in 6.2 mi SW 6.9 mph - N/A   Mostly Cloudy
9:20 AM 41.0 °F 37.1 °F 41.0 °F 100% 29.36 in 6.2 mi SW 5.8 mph - N/A   Mostly Cloudy
9:50 AM 41.0 °F 37.1 °F 41.0 °F 100% 29.36 in 6.2 mi SSW 5.8 mph - N/A   Mostly Cloudy
10:20 AM 41.0 °F 37.1 °F 41.0 °F 100% 29.39 in 6.2 mi SSW 5.8 mph - N/A   Mostly Cloudy
10:50 AM 42.8 °F 40.1 °F 41.0 °F 93% 29.39 in 6.2 mi SW 4.6 mph - N/A   Mostly Cloudy
11:20 AM 42.8 °F 38.6 °F 42.8 °F 100% 29.39 in 6.2 mi SW 6.9 mph - N/A   Mostly Cloudy
11:50 AM 42 °F - 42 °F 98% 29.42 in 11 mi WSW 4.6 mph - -   Mostly Cloudy
11:50 AM 42.8 °F 39.3 °F 42.8 °F 100% 29.42 in 6.2 mi WSW 5.8 mph - N/A   Mostly Cloudy
12:20 PM 42.8 °F 40.1 °F 42.8 °F 100% 29.42 in 6.2 mi West 4.6 mph - N/A   Mostly Cloudy
12:50 PM 42.8 °F 40.1 °F 42.8 °F 100% 29.42 in 6.2 mi West 4.6 mph - N/A   Scattered Clouds
1:20 PM 42.8 °F 40.1 °F 42.8 °F 100% 29.42 in 4.3 mi SW 4.6 mph - N/A   Scattered Clouds
1:50 PM 42.8 °F 41.1 °F 42.8 °F 100% 29.44 in 6.2 mi West 3.5 mph - N/A   Mostly Cloudy
2:20 PM 42.8 °F 40.1 °F 42.8 °F 100% 29.44 in 6.2 mi West 4.6 mph - N/A   Mostly Cloudy
2:50 PM 43 °F - 41 °F 91% 29.48 in 19 mi West 3.5 mph - -   Scattered Clouds
2:50 PM 42.8 °F 40.1 °F 42.8 °F 100% 29.47 in 6.2 mi West 4.6 mph - N/A   Mostly Cloudy
3:20 PM 42.8 °F 41.1 °F 42.8 °F 100% 29.47 in 6.2 mi WNW 3.5 mph - N/A   Mostly Cloudy
3:50 PM 42.8 °F 40.1 °F 42.8 °F 100% 29.50 in 6.2 mi West 4.6 mph - N/A   Mostly Cloudy
4:20 PM 42.8 °F 39.3 °F 42.8 °F 100% 29.50 in 6.2 mi WNW 5.8 mph - N/A   Mostly Cloudy
4:50 PM 42.8 °F 41.1 °F 42.8 °F 100% 29.53 in 6.2 mi WNW 3.5 mph - N/A   Mostly Cloudy
5:20 PM 42.8 °F - 42.8 °F 100% 29.56 in 5.6 mi Variable 2.3 mph - N/A   Mostly Cloudy
5:50 PM 41 °F - 39 °F 92% 29.59 in 5 mi NW 3.5 mph - -   Mist
5:50 PM 42.8 °F 40.1 °F 42.8 °F 100% 29.56 in 6.2 mi NW 4.6 mph - N/A   Mostly Cloudy
6:20 PM 41.0 °F 39.0 °F 41.0 °F 100% 29.59 in 6.2 mi NW 3.5 mph - N/A   Mostly Cloudy
6:50 PM 41.0 °F 38.0 °F 41.0 °F 100% 29.62 in 6.2 mi NW 4.6 mph - N/A   Mostly Cloudy
7:20 PM 41.0 °F 39.0 °F 41.0 °F 100% 29.62 in 3.7 mi West 3.5 mph - N/A   Mostly Cloudy
7:50 PM 42.8 °F - 42.8 °F 100% 29.65 in 6.2 mi WSW 2.3 mph - N/A   Mostly Cloudy
8:20 PM 41.0 °F 38.0 °F 41.0 °F 100% 29.65 in 6.2 mi NW 4.6 mph - N/A   Scattered Clouds
8:50 PM 40 °F - 39 °F 95% 29.70 in 6 mi WNW 3.5 mph - -   Mist
8:50 PM 39.2 °F - 39.2 °F 100% 29.68 in 6.2 mi NW 2.3 mph - N/A   Scattered Clouds
9:20 PM 41.0 °F 37.1 °F 41.0 °F 100% 29.71 in 6.2 mi NW 5.8 mph - N/A   Mostly Cloudy
9:50 PM 39.2 °F 35.9 °F 39.2 °F 100% 29.71 in 5.0 mi NNW 4.6 mph - N/A   Partly Cloudy